Flag for Argentina Weather past 2 weeks in Buenos Aires, Argentina

Now
46 °F

Clear.


Feels Like: 41 °F
Forecast: 44 / 54 °F
Wind: 12 mph from Northwest

Location: Buenos Aires Airport

Current Time: Jul 25, 2014 at 6:01:37 AM

Latest Report: Jul 25, 2014 at 5:00 AM


Visibility: 10 mi

Pressure: 30.09 "Hg

Humidity: 53%

Dew point: 30 °F

Location of Buenos AiresLocation

Historic Weather in Buenos Aires — Graph

°F

Buenos Aires temperature yesterday

Maximum temperature yesterday: 55 °F (at 1:00 PM)
Minimum temperature yesterday: 43 °F (at 8:00 AM)
Average temperature yesterday: 50 °F

Past Weeks' High & Low Weather Summary

 TemperatureHumidityPressure
High68 °F (Jul 19, 5:00 PM)100% (Jul 12, 7:00 PM)30.42 "Hg (Jul 12, 7:00 PM)
Low43 °F (Jul 24, 8:00 AM)24% (Jul 24, 5:00 PM)29.74 "Hg (Jul 22, 10:00 AM)
Average57 °F78%30.09 "Hg
* Reported Jul 10 5:00 AM — Jul 25 5:00 AM, Buenos Aires, Weather by CustomWeather, © 2014

Note: Actual official high and low records may vary slightly from our data, if they occured in-between our weather recording intervals... More about our weather records

Advertising

Buenos Aires weather history for previous 24 hours

 ConditionsComfort  
Time TempWeatherWind HumidityBarometerVisibility
5:00 AM
Jul 25
46 °FClear.12 mph53%30.09 "Hg10 mi
4:00 AM46 °FClear.9 mph57%30.12 "Hg10 mi
3:00 AM46 °FClear.9 mph57%30.15 "Hg10 mi
2:00 AM46 °FClear.9 mph62%30.15 "Hg10 mi
11:00 PM
Jul 24
48 °FClear.7 mph50%30.18 "Hg10 mi
10:00 PM48 °FClear.7 mph37%30.18 "Hg10 mi
9:00 PM50 °FClear.6 mph40%30.18 "Hg10 mi
8:00 PM52 °FClear.5 mph41%30.18 "Hg10 mi
7:00 PM54 °FClear.5 mph35%30.18 "Hg10 mi
6:00 PM54 °FClear.6 mph35%30.18 "Hg10 mi
5:00 PM55 °FSunny.7 mph24%30.18 "Hg10 mi
4:00 PM55 °FSunny.5 mph26%30.18 "Hg10 mi
3:00 PM55 °FSunny.12 mph26%30.18 "Hg10 mi
2:00 PM55 °FSunny.8 mph31%30.21 "Hg10 mi
1:00 PM55 °FSunny.8 mph28%30.21 "Hg10 mi
12:00 PM54 °FSunny.7 mph41%30.24 "Hg10 mi
11:00 AM52 °FSunny.7 mph41%30.24 "Hg10 mi
10:00 AM48 °FSunny.6 mph54%30.24 "Hg10 mi
9:00 AM45 °FSunny.6 mph71%30.21 "Hg10 mi
8:00 AM43 °FSunny.6 mph76%30.21 "Hg10 mi
7:00 AM45 °FSunny.6 mph76%30.18 "Hg10 mi
6:00 AM45 °FClear.7 mph81%30.18 "Hg10 mi
Weather by CustomWeather, © 2014

See weather overviewHow to use our weather pages